This is the latest recevied weather packets stored in our database for station/object N3LF. If no packets are shown the sender has not sent any weather packets the latest 10 day(s).
| Time | Temp. | Humidity | Pressure | Rain* | Wind** | Luminosity | Snow |
|---|---|---|---|---|---|---|---|
| 1777552662 | 11.67° C | 77% | 1020.3 hPa | 0 mm | - | 156 W/m² | - |
| 1777552360 | 11.11° C | 79% | 1020 hPa | 0 mm | - | 141 W/m² | - |
| 1777552056 | 11.11° C | 79% | 1020.1 hPa | 0 mm | - | 128 W/m² | - |
| 1777551753 | 10.56° C | 80% | 1020.1 hPa | 0 mm | - | 117 W/m² | - |
| 1777551450 | 10.56° C | 79% | 1020 hPa | 0 mm | - | 104 W/m² | - |
| 1777551147 | 10.56° C | 81% | 1020.1 hPa | 0 mm | - | 92 W/m² | - |
| 1777550845 | 10.56° C | 82% | 1020 hPa | 0 mm | - | 82 W/m² | - |
| 1777550541 | 10.56° C | 83% | 1019.9 hPa | 0 mm | - | 72 W/m² | - |
| 1777550236 | 10.56° C | 85% | 1019.7 hPa | 0 mm | - | 63 W/m² | - |
| 1777549933 | 10° C | 84% | 1019.8 hPa | 0 mm | - | 54 W/m² | - |
| 1777549630 | 9.44° C | 86% | 1019.8 hPa | 0 mm | - | 46 W/m² | - |
| 1777549325 | 8.89° C | 86% | 1019.5 hPa | 0 mm | - | 39 W/m² | - |
| 1777549023 | 8.89° C | 89% | 1019.4 hPa | 0 mm | - | 28 W/m² | - |
| 1777548719 | 8.33° C | 88% | 1019.2 hPa | 0 mm | - | 21 W/m² | - |
| 1777548416 | 8.89° C | 89% | 1019.1 hPa | 0 mm | - | 18 W/m² | - |
| 1777548113 | 8.33° C | 89% | 1018.9 hPa | 0 mm | - | 15 W/m² | - |
| 1777547808 | 8.33° C | 89% | 1019.1 hPa | 0 mm | - | 12 W/m² | - |
| 1777547505 | 8.89° C | 90% | 1019 hPa | 0 mm | - | 9 W/m² | - |
| 1777547203 | 8.89° C | 87% | 1019.1 hPa | 0 mm | - | 7 W/m² | - |
| 1777546900 | 9.44° C | 85% | 1018.9 hPa | 0 mm | - | 5 W/m² | - |
| 1777546597 | 9.44° C | 84% | 1018.8 hPa | 0 mm | - | 3 W/m² | - |
| 1777546293 | 9.44° C | 83% | 1018.6 hPa | 0 mm | - | 1 W/m² | - |
| 1777545991 | 9.44° C | 83% | 1018.7 hPa | 0 mm | - | 1 W/m² | - |
| 1777545686 | 9.44° C | 84% | 1018.9 hPa | 0 mm | - | 0 W/m² | - |
| 1777545383 | 9.44° C | 83% | 1018.9 hPa | 0 mm | - | 0 W/m² | - |
* Rain latest hour (hover to see other rain measurements)
** Current wind speed in m/s (hover to see current wind gust speed)